This demonstration page uses our WeatherBlox Daily Observations layout. Learn more.

38.89511, -77.03637

Hourly Observations for March 3, 2015

Temp ( °F °C ) Dew Point ( °F °C ) Humidity (%) Winds ( mph kmh ) Pressure ( in mb ) Visibility ( mi km ) Precip ( " mm )
12:52 am 00:52 Partly Cloudy 34 1 16 -9 48 48 N 7 11 30.42 1030 10 16.09344 0 0
1:52 am 01:52 Mostly Cloudy 32 0 16 -9 51 51 N 8 13 30.42 1030 10 16.09344 0 0
2:52 am 02:52 Cloudy 32 0 16 -9 51 51 N 9 15 30.42 1030 10 16.09344 0 0
3:52 am 03:52 Cloudy 30 -1 18 -8 59 59 NNE 7 11 30.42 1030 10 16.09344 0 0
4:52 am 04:52 Cloudy 30 -1 18 -8 59 59 E 5 7 30.42 1030 10 16.09344 0 0
5:52 am 05:52 Cloudy 30 -1 16 -9 55 55 NE 6 9 30.45 1031 10 16.09344 0 0
6:52 am 06:52 Cloudy 30 -1 16 -9 55 55 ENE 3 6 30.45 1031 10 16.09344 0 0
7:52 am 07:52 Cloudy 32 0 16 -9 51 51 Calm 30.45 1031 10 16.09344 0 0
8:52 am 08:52 Cloudy 34 1 16 -9 48 48 E 8 13 30.45 1031 10 16.09344 0 0
9:52 am 09:52 Cloudy 34 1 16 -9 48 48 SSE 7 11 30.42 1030 10 16.09344 0 0
10:33 am 10:33 Cloudy 36 2 16 -9 44 44 SSE 8 13 30.42 1030 10 16.09344 0 0
10:52 am 10:52 Cloudy 34 1 16 -9 48 48 SSE 8 13 30.42 1030 10 16.09344 0 0
11:52 am 11:52 Cloudy 36 2 18 -8 48 48 S 12 19 30.36 1028 10 16.09344 0 0
12:04 pm 12:04 Cloudy with Light Rain 36 2 19 -7 52 52 S 12 19 30.36 1028 10 16.09344 0 0
12:11 pm 12:11 Cloudy 36 2 19 -7 52 52 S 10 17 30.36 1028 10 16.09344 0 0
12:32 pm 12:32 Cloudy with Light Rain 36 2 19 -7 52 52 S 14 22 30.33 1027 10 16.09344 0 0
12:52 pm 12:52 Cloudy with Light Rain 36 2 21 -6 56 56 S 10 17 30.33 1027 10 16.09344 0.01 0.254
1:52 pm 13:52 Cloudy 34 1 21 -6 60 60 S 13 20 30.27 1025 10 16.09344 0.001 0.001
2:52 pm 14:52 Cloudy 34 1 21 -6 60 60 SSE 9 15 30.24 1024 10 16.09344 0.001 0.001
3:52 pm 15:52 Cloudy with Light Rain 34 1 21 -6 60 60 S 10 17 30.18 1022 10 16.09344 0.001 0.001
4:52 pm 16:52 Cloudy with Light Rain 34 1 25 -4 70 70 S 12 19 30.15 1021 10 16.09344 0.01 0.254
5:52 pm 17:52 Cloudy with Light Rain 34 1 25 -4 70 70 S 12 19 30.12 1020 10 16.09344 0.001 0.001
5:55 pm 17:55 Cloudy with Light Rain 34 1 25 -4 70 70 S 12 19 30.09 1019 10 16.09344 0.001 0.001
6:52 pm 18:52 Cloudy with Light Rain 34 1 25 -4 70 70 S 12 19 30.06 1018 10 16.09344 0.02 0.508
7:52 pm 19:52 Cloudy 36 2 27 -3 70 70 S 14 22 30.03 1017 10 16.09344 0.001 0.001
8:52 pm 20:52 Cloudy 37 3 25 -4 60 60 S 12 19 30 1016 10 16.09344 0 0
9:33 pm 21:33 Mostly Cloudy 37 3 27 -3 65 65 S 17 28 29.97 1015 10 16.09344 0 0
9:52 pm 21:52 Mostly Cloudy 37 3 28 -2 70 70 SSW 15 24 29.97 1015 10 16.09344 0 0
10:07 pm 22:07 Mostly Cloudy 39 4 28 -2 65 65 SSW 14 22 29.94 1014 10 16.09344 0 0
10:52 pm 22:52 Cloudy 39 4 30 -1 70 70 SSW 12 19 29.91 1013 10 16.09344 0 0
11:06 pm 23:06 Cloudy 39 4 32 0 75 75 SSW 12 19 29.91 1013 10 16.09344 0 0
11:52 pm 23:52 Cloudy 41 5 34 1 76 76 S 14 22 29.88 1012 10 16.09344 0 0

Powered by AerisWeather